User: anonymous   Login
Location: Pine Mountain Observatory
(43.7910°N, 120.9377°W)
Time: 02:48:52
(UTC-07:00)
Language:

APEX - Orbit

View from above orbital plane
View from above orbital plane
View from above satellite
View from above satellite

Ground track
Ground track

The orbit data is extracted from the following two-line orbital elements,

1 23191U 94046A   15109.45046497  .00023724  00000-0  87074-3 0  9991
2 23191 069.9338 225.4447 0691235 250.4977 173.1248 14.17321593  3683
Epoch (UTC): 19 April 2015 10:48:40
Eccentricity: 0.0691235
inclination: 69.9338°
perigee height: 336 km
apogee height: 1333 km
right ascension of ascending node: 225.4447°
argument of perigee: 250.4977°
revolutions per day: 14.17321593
mean anomaly at epoch: 173.1248°
orbit number at epoch: 368

The dashed part of the orbit path shows where the satellite is in the earth's shadow,  

DLR